{"data":{"norad_id":64919,"intl_designator":"2025-157R","name":"STARLINK-34599","alt_names":[],"object_type":"PAYLOAD","status":"ACTIVE","operator":null,"country":"US","launch_date":"2025-07-26","launch_site_code":"AFETR","launch_vehicle":null,"mission":null,"orbit_class":"UNKNOWN","rcs_meters":null,"size_class":null,"mass_kg":null,"dimensions":null,"purposes":["comms"],"wikipedia_slug":null,"has_3d_model":false,"image_url":null,"decayed_at":null,"tle_current":{"epoch":"2026-09-19T05:30:13.494240Z","epoch_age_seconds":234095,"freshness":"STALE","line1":"1 64919U 25157R   26262.22932285  .00020056  00000+0  60291-3 0  9993","line2":"2 64919  53.1567 163.9855 0001262  90.6841 269.4306 15.34411239 65794","mean_motion":15.34411239,"eccentricity":0.0001262,"inclination_deg":53.1567,"raan_deg":163.9855,"arg_perigee_deg":90.6841,"mean_anomaly_deg":269.4306,"bstar":0.00060291,"rev_number":6579,"period_min":93.8470706809,"perigee_km":461.80652591182,"apogee_km":463.53314555716,"semimajor_km":6840.8068357345,"source":"CELESTRAK","updated_at":"2026-09-21T09:00:35.482743Z"}}}